Time,TemperatureF,DewpointF,PressureIn,WindDirection,WindDirectionDegrees,WindSpeedMPH,WindSpeedGustMPH,Humidity,HourlyPrecipIn,Conditions,Clouds,dailyrainin,SoftwareType,DateUTC
2013-04-02 00:10:00,34.3,14.0,29.65,NNE,24,5.0,-999.0,44,-99.99,,,0.00,weatherlink.com 1.10,2013-04-02 04:10:00,
2013-04-02 00:25:00,34.1,14.0,29.65,NNW,342,3.0,-999.0,43,-99.99,,,0.00,weatherlink.com 1.10,2013-04-02 04:25:00,
2013-04-02 00:40:00,33.8,14.0,29.65,South,173,0.0,-999.0,44,-99.99,,,0.00,weatherlink.com 1.10,2013-04-02 04:40:00,
2013-04-02 00:55:00,33.4,14.0,29.66,West,261,0.0,-999.0,45,-99.99,,,0.00,weatherlink.com 1.10,2013-04-02 04:55:00,
2013-04-02 01:10:00,33.1,14.0,29.67,WNW,288,0.0,-999.0,46,-99.99,,,0.00,weatherlink.com 1.10,2013-04-02 05:10:00,
2013-04-02 01:25:00,32.7,14.0,29.67,North,350,0.0,-999.0,47,-99.99,,,0.00,weatherlink.com 1.10,2013-04-02 05:25:00,
2013-04-02 01:40:00,32.1,14.0,29.68,NW,319,0.0,-999.0,48,-99.99,,,0.00,weatherlink.com 1.10,2013-04-02 05:40:00,
2013-04-02 01:55:00,31.7,14.0,29.68,WNW,294,0.0,-999.0,49,-99.99,,,0.00,weatherlink.com 1.10,2013-04-02 05:55:00,
2013-04-02 02:10:00,31.5,15.0,29.67,WNW,288,0.0,-999.0,50,-99.99,,,0.00,weatherlink.com 1.10,2013-04-02 06:10:00,
2013-04-02 02:25:00,31.0,15.0,29.67,WSW,257,0.0,-999.0,51,-99.99,,,0.00,weatherlink.com 1.10,2013-04-02 06:25:00,
2013-04-02 02:40:00,30.7,14.0,29.67,WNW,299,0.0,-999.0,51,-99.99,,,0.00,weatherlink.com 1.10,2013-04-02 06:40:00,
2013-04-02 02:55:00,30.5,15.0,29.67,WNW,294,0.0,-999.0,52,-99.99,,,0.00,weatherlink.com 1.10,2013-04-02 06:55:00,
2013-04-02 03:10:00,30.3,15.0,29.68,West,276,0.0,-999.0,53,-99.99,,,0.00,weatherlink.com 1.10,2013-04-02 07:10:00,
2013-04-02 03:25:00,29.6,16.0,29.68,SW,225,0.0,-999.0,56,-99.99,,,0.00,weatherlink.com 1.10,2013-04-02 07:25:00,
2013-04-02 03:40:00,29.4,15.0,29.67,NNW,327,0.0,-999.0,56,-99.99,,,0.00,weatherlink.com 1.10,2013-04-02 07:40:00,
2013-04-02 03:55:00,30.5,14.0,29.68,WNW,302,2.0,-999.0,50,-99.99,,,0.00,weatherlink.com 1.10,2013-04-02 07:55:00,
2013-04-02 04:10:00,30.6,13.0,29.68,NNE,27,3.0,-999.0,49,-99.99,,,0.00,weatherlink.com 1.10,2013-04-02 08:10:00,
2013-04-02 04:25:00,30.3,14.0,29.68,NW,317,0.0,-999.0,51,-99.99,,,0.00,weatherlink.com 1.10,2013-04-02 08:25:00,
2013-04-02 04:40:00,29.7,15.0,29.68,West,276,0.0,-999.0,54,-99.99,,,0.00,weatherlink.com 1.10,2013-04-02 08:40:00,
2013-04-02 04:55:00,29.3,14.0,29.69,South,171,0.0,-999.0,54,-99.99,,,0.00,weatherlink.com 1.10,2013-04-02 08:55:00,
2013-04-02 05:10:00,29.6,13.0,29.69,North,9,0.0,-999.0,50,-99.99,,,0.00,weatherlink.com 1.10,2013-04-02 09:10:00,
2013-04-02 05:25:00,29.1,13.0,29.69,North,5,0.0,-999.0,52,-99.99,,,0.00,weatherlink.com 1.10,2013-04-02 09:25:00,
2013-04-02 05:40:00,28.9,12.0,29.70,WSW,247,0.0,-999.0,50,-99.99,,,0.00,weatherlink.com 1.10,2013-04-02 09:40:00,
2013-04-02 05:55:00,29.3,12.0,29.70,West,261,0.0,-999.0,48,-99.99,,,0.00,weatherlink.com 1.10,2013-04-02 09:55:00,
2013-04-02 06:10:00,29.1,12.0,29.70,West,271,1.0,-999.0,48,-99.99,,,0.00,weatherlink.com 1.10,2013-04-02 10:10:00,
2013-04-02 06:25:00,29.2,11.0,29.70,SSW,201,0.0,-999.0,46,-99.99,,,0.00,weatherlink.com 1.10,2013-04-02 10:25:00,
2013-04-02 06:40:00,29.3,12.0,29.71,West,259,1.0,-999.0,48,-99.99,,,0.00,weatherlink.com 1.10,2013-04-02 10:40:00,
2013-04-02 06:55:00,29.1,13.0,29.71,WSW,244,0.0,-999.0,51,-99.99,,,0.00,weatherlink.com 1.10,2013-04-02 10:55:00,
2013-04-02 07:10:00,29.5,14.0,29.71,West,263,0.0,-999.0,52,-99.99,,,0.00,weatherlink.com 1.10,2013-04-02 11:10:00,
2013-04-02 07:25:00,30.1,14.0,29.72,West,264,0.0,-999.0,51,-99.99,,,0.00,weatherlink.com 1.10,2013-04-02 11:25:00,
2013-04-02 07:40:00,31.2,15.0,29.73,WSW,256,0.0,-999.0,51,-99.99,,,0.00,weatherlink.com 1.10,2013-04-02 11:40:00,
2013-04-02 07:55:00,31.9,14.0,29.73,West,269,0.0,-999.0,48,-99.99,,,0.00,weatherlink.com 1.10,2013-04-02 11:55:00,
2013-04-02 08:10:00,32.8,14.0,29.73,WNW,296,1.0,-999.0,47,-99.99,,,0.00,weatherlink.com 1.10,2013-04-02 12:10:00,
2013-04-02 08:25:00,33.0,13.0,29.73,WSW,242,0.0,-999.0,44,-99.99,,,0.00,weatherlink.com 1.10,2013-04-02 12:25:00,
2013-04-02 08:40:00,33.9,14.0,29.73,NW,304,0.0,-999.0,45,-99.99,,,0.00,weatherlink.com 1.10,2013-04-02 12:40:00,
2013-04-02 08:55:00,34.4,13.0,29.73,West,272,0.0,-999.0,42,-99.99,,,0.00,weatherlink.com 1.10,2013-04-02 12:55:00,
2013-04-02 09:10:00,35.3,13.0,29.73,NW,309,0.0,-999.0,40,-99.99,,,0.00,weatherlink.com 1.10,2013-04-02 13:10:00,
2013-04-02 09:25:00,35.8,14.0,29.72,WNW,291,0.0,-999.0,40,-99.99,,,0.00,weatherlink.com 1.10,2013-04-02 13:25:00,
2013-04-02 09:40:00,35.6,12.0,29.72,West,270,7.0,-999.0,37,-99.99,,,0.00,weatherlink.com 1.10,2013-04-02 13:40:00,
2013-04-02 09:55:00,36.1,10.0,29.72,NNW,329,4.0,-999.0,34,-99.99,,,0.00,weatherlink.com 1.10,2013-04-02 13:55:00,
2013-04-02 10:10:00,36.6,11.0,29.72,North,5,5.0,-999.0,35,-99.99,,,0.00,weatherlink.com 1.10,2013-04-02 14:10:00,
2013-04-02 10:25:00,37.3,12.0,29.72,SW,226,11.0,-999.0,35,-99.99,,,0.00,weatherlink.com 1.10,2013-04-02 14:25:00,
2013-04-02 10:40:00,37.3,12.0,29.71,SW,217,7.0,-999.0,36,-99.99,,,0.00,weatherlink.com 1.10,2013-04-02 14:40:00,
2013-04-02 10:55:00,38.1,11.0,29.71,WNW,294,5.0,-999.0,33,-99.99,,,0.01,weatherlink.com 1.10,2013-04-02 14:55:00,
2013-04-02 11:10:00,38.2,13.0,29.71,SW,221,5.0,-999.0,35,-99.99,,,0.01,weatherlink.com 1.10,2013-04-02 15:10:00,
2013-04-02 11:25:00,38.2,10.0,29.71,NW,308,3.0,-999.0,31,-99.99,,,0.01,weatherlink.com 1.10,2013-04-02 15:25:00,
2013-04-02 11:40:00,38.0,10.0,29.70,NW,304,0.0,-999.0,31,-99.99,,,0.01,weatherlink.com 1.10,2013-04-02 15:40:00,
2013-04-02 11:55:00,39.9,11.0,29.70,North,360,2.0,-999.0,30,-99.99,,,0.01,weatherlink.com 1.10,2013-04-02 15:55:00,
2013-04-02 12:10:00,39.4,9.0,29.70,WNW,303,0.0,-999.0,29,-99.99,,,0.01,weatherlink.com 1.10,2013-04-02 16:10:00,
2013-04-02 12:25:00,39.3,12.0,29.70,West,263,3.0,-999.0,32,-99.99,,,0.01,weatherlink.com 1.10,2013-04-02 16:25:00,
2013-04-02 12:40:00,38.4,11.0,29.69,WNW,292,2.0,-999.0,33,-99.99,,,0.01,weatherlink.com 1.10,2013-04-02 16:40:00,
2013-04-02 12:55:00,37.9,11.0,29.69,West,262,6.0,-999.0,33,-99.99,,,0.01,weatherlink.com 1.10,2013-04-02 16:55:00,
2013-04-02 13:10:00,39.6,13.0,29.68,WNW,288,5.0,-999.0,33,-99.99,,,0.01,weatherlink.com 1.10,2013-04-02 17:10:00,
2013-04-02 13:40:00,39.6,14.0,29.68,West,272,0.0,-999.0,35,-99.99,,,0.01,weatherlink.com 1.10,2013-04-02 17:40:00,
2013-04-02 13:55:00,40.2,13.0,29.68,WNW,284,0.0,-999.0,33,-99.99,,,0.01,weatherlink.com 1.10,2013-04-02 17:55:00,
2013-04-02 14:10:00,39.3,14.0,29.68,North,360,0.0,-999.0,36,-99.99,,,0.01,weatherlink.com 1.10,2013-04-02 18:10:00,
2013-04-02 14:25:00,37.9,15.0,29.68,West,262,7.0,-999.0,39,-99.99,,,0.01,weatherlink.com 1.10,2013-04-02 18:25:00,
2013-04-02 14:40:00,38.9,16.0,29.67,West,275,0.0,-999.0,39,-99.99,,,0.01,weatherlink.com 1.10,2013-04-02 18:40:00,
2013-04-02 14:55:00,39.4,13.0,29.66,WSW,257,0.0,-999.0,34,-99.99,,,0.01,weatherlink.com 1.10,2013-04-02 18:55:00,
2013-04-02 15:10:00,39.5,12.0,29.66,NNE,29,1.0,-999.0,33,-99.99,,,0.01,weatherlink.com 1.10,2013-04-02 19:10:00,
2013-04-02 15:25:00,38.7,11.0,29.66,West,279,0.0,-999.0,32,-99.99,,,0.01,weatherlink.com 1.10,2013-04-02 19:25:00,
2013-04-02 15:40:00,39.8,13.0,29.66,WNW,287,5.0,-999.0,33,-99.99,,,0.01,weatherlink.com 1.10,2013-04-02 19:40:00,
2013-04-02 15:55:00,40.1,11.0,29.66,North,350,2.0,-999.0,30,-99.99,,,0.01,weatherlink.com 1.10,2013-04-02 19:55:00,
2013-04-02 16:10:00,39.6,13.0,29.66,NNW,328,1.0,-999.0,33,-99.99,,,0.01,weatherlink.com 1.10,2013-04-02 20:10:00,
2013-04-02 16:25:00,40.1,11.0,29.66,NW,319,7.0,-999.0,30,-99.99,,,0.01,weatherlink.com 1.10,2013-04-02 20:25:00,
2013-04-02 16:40:00,39.7,12.0,29.66,SW,233,0.0,-999.0,32,-99.99,,,0.01,weatherlink.com 1.10,2013-04-02 20:40:00,
2013-04-02 16:55:00,39.2,12.0,29.67,NE,44,2.0,-999.0,33,-99.99,,,0.01,weatherlink.com 1.10,2013-04-02 20:55:00,
2013-04-02 17:10:00,38.4,11.0,29.68,SW,228,1.0,-999.0,33,-99.99,,,0.01,weatherlink.com 1.10,2013-04-02 21:10:00,
2013-04-02 17:25:00,37.9,11.0,29.68,SW,230,4.0,-999.0,33,-99.99,,,0.01,weatherlink.com 1.10,2013-04-02 21:25:00,
2013-04-02 17:40:00,37.1,12.0,29.68,WNW,288,5.0,-999.0,35,-99.99,,,0.01,weatherlink.com 1.10,2013-04-02 21:40:00,
2013-04-02 18:10:00,36.4,12.0,29.71,WNW,302,4.0,-999.0,36,-99.99,,,0.01,weatherlink.com 1.10,2013-04-02 22:10:00,
2013-04-02 18:25:00,35.9,12.0,29.71,WNW,300,0.0,-999.0,37,-99.99,,,0.01,weatherlink.com 1.10,2013-04-02 22:25:00,
2013-04-02 18:40:00,35.8,12.0,29.71,NE,34,4.0,-999.0,37,-99.99,,,0.01,weatherlink.com 1.10,2013-04-02 22:40:00,
2013-04-02 18:55:00,35.2,12.0,29.72,WNW,284,3.0,-999.0,38,-99.99,,,0.01,weatherlink.com 1.10,2013-04-02 22:55:00,
2013-04-02 19:10:00,34.7,12.0,29.73,WSW,257,2.0,-999.0,39,-99.99,,,0.01,weatherlink.com 1.10,2013-04-02 23:10:00,
2013-04-02 19:40:00,33.7,13.0,29.75,SW,226,0.0,-999.0,42,-99.99,,,0.01,weatherlink.com 1.10,2013-04-02 23:40:00,
2013-04-02 19:55:00,33.5,13.0,29.75,WNW,302,0.0,-999.0,43,-99.99,,,0.01,weatherlink.com 1.10,2013-04-02 23:55:00,
2013-04-02 20:10:00,33.0,13.0,29.75,NW,308,0.0,-999.0,44,-99.99,,,0.01,weatherlink.com 1.10,2013-04-03 00:10:00,
2013-04-02 20:25:00,33.1,13.0,29.76,South,189,1.0,-999.0,44,-99.99,,,0.01,weatherlink.com 1.10,2013-04-03 00:25:00,
2013-04-02 20:40:00,33.0,14.0,29.77,WSW,248,0.0,-999.0,45,-99.99,,,0.01,weatherlink.com 1.10,2013-04-03 00:40:00,
2013-04-02 20:55:00,32.8,13.0,29.77,NNW,334,2.0,-999.0,45,-99.99,,,0.01,weatherlink.com 1.10,2013-04-03 00:55:00,
2013-04-02 21:10:00,32.7,13.0,29.77,WSW,248,6.0,-999.0,45,-99.99,,,0.01,weatherlink.com 1.10,2013-04-03 01:10:00,
2013-04-02 21:40:00,32.1,13.0,29.78,SW,229,0.0,-999.0,45,-99.99,,,0.01,weatherlink.com 1.10,2013-04-03 01:40:00,
2013-04-02 22:10:00,32.2,13.0,29.77,SSW,213,0.0,-999.0,45,-99.99,,,0.01,weatherlink.com 1.10,2013-04-03 02:10:00,
2013-04-02 22:25:00,32.1,13.0,29.77,WSW,244,2.0,-999.0,46,-99.99,,,0.01,weatherlink.com 1.10,2013-04-03 02:25:00,
2013-04-02 22:40:00,32.0,13.0,29.77,SW,216,0.0,-999.0,46,-99.99,,,0.01,weatherlink.com 1.10,2013-04-03 02:40:00,
2013-04-02 22:55:00,32.1,14.0,29.77,WSW,252,0.0,-999.0,47,-99.99,,,0.01,weatherlink.com 1.10,2013-04-03 02:55:00,
2013-04-02 23:10:00,31.9,14.0,29.77,WSW,247,0.0,-999.0,47,-99.99,,,0.01,weatherlink.com 1.10,2013-04-03 03:10:00,
2013-04-02 23:25:00,32.1,14.0,29.77,NW,319,0.0,-999.0,47,-99.99,,,0.01,weatherlink.com 1.10,2013-04-03 03:25:00,
2013-04-02 23:40:00,31.8,14.0,29.77,SW,236,2.0,-999.0,48,-99.99,,,0.01,weatherlink.com 1.10,2013-04-03 03:40:00,
2013-04-02 23:55:00,31.8,14.0,29.77,SW,225,0.0,-999.0,49,-99.99,,,0.01,weatherlink.com 1.10,2013-04-03 03:55:00,